Regional Weather Roundup
Issued by NWS

Home | Current Version | Previous Version | Graphics & Text | Print | Product List | Glossary On
Versions: 1 2 3 4 5 6 7 8 9 10 11 12 13 14 15 16 17 18 19 20 21 22 23 24 25 26 27 28 29 30 31 32 33 34 35 36 37 38 39 40 41 42 43 44 45 46 47 48 49 50
000
ASUS43 KDMX 122306
RWRIA

WEATHER ROUNDUP FOR IOWA
NATIONAL WEATHER SERVICE DES MOINES IA
500 PM CST TUE DEC 12 2017

NOTE: "FAIR" INDICATES FEW OR NO CLOUDS BELOW 12,000 FEET WITH NO
SIGNIFICANT WEATHER AND/OR OBSTRUCTIONS TO VISIBILITY.

* - THESE STATIONS ARE NOT NWS STATIONS...THUS NOT UNDER NWS
QUALITY CONTROL.  THEY ALSO DO NOT REPORT WEATHER SUCH
AS PRECIPITATION OR FOG.

IAZ001>003-012>014-020>022-031>034-043>046-130000-
   NORTHWEST IOWA

CITY           SKY/WX    TMP DP  RH WIND       PRES   REMARKS
CARROLL *      CLEAR     32  21  64 SW10      29.99F WCI  24
CHEROKEE *     CLEAR     32  24  72 S7        29.96F WCI  26
DENISON *      CLEAR     34  23  64 SW7       30.01F WCI  28
LE MARS *      CLEAR     36  27  69 S12       29.93F WCI  27
ORANGE CITY *  CLEAR     36  28  75 S6        29.93F WCI  31
SHELDON *      CLEAR     36  28  75 S8        29.92F WCI  29
SIOUX CITY     CLEAR     39  26  59 SW9       29.96F WCI  33
SPENCER        CLEAR     34  24  67 SW9       29.94F WCI  27
STORM LAKE *   CLEAR     32  23  69 SW14      29.95F WCI  22
$$

IAZ055>058-069>071-079>083-090>094-130000-
   SOUTHWEST IOWA

CITY           SKY/WX    TMP DP  RH WIND       PRES   REMARKS
ATLANTIC *     CLEAR     32  23  69 SW8       30.04F WCI  25
AUDUBON *      CLEAR     32  21  64 S6        30.02F WCI  26
CLARINDA *     CLEAR     36  23  60 CALM        N/A
COUNCIL BLFS * CLEAR     36  27  69 S7        30.03F WCI  30
CRESTON *      CLEAR     30  19  64 SW8       30.08F WCI  23
HARLAN  *      CLEAR     34  23  64 SW8       30.06F WCI  27
LAMONI         PTCLDY    30  18  60 SW6       30.08F WCI  24
RED OAK *      CLEAR     32  21  64 S7        30.07F WCI  26
SHENANDOAH *   CLEAR     36  25  64 S7        30.08F WCI  30
$$

IAZ047>049-059>061-072>074-084-130000-
   CENTRAL IOWA

CITY           SKY/WX    TMP DP  RH WIND       PRES   REMARKS
AMES           CLEAR     29  19  66 SW9       30.00F WCI  20
ANKENY *       CLEAR     30  18  59 SW8       30.04F WCI  23
BOONE *        CLEAR     32  19  59 SW9       29.98F WCI  24
CHARITON *     CLEAR     30  12  47 SW5       30.07F WCI  25
DES MOINES     PTCLDY    31  18  58 SW7       30.05F WCI  24
GRINNELL*      MOCLDY    27  10  47 SW8       30.05F WCI  19
KNOXVILLE *    CLEAR     28   9  43 SW6       30.05F WCI  22
MARSHALLTOWN   CLEAR     27  14  58 SW9       30.01F WCI  18
NEWTON *       PTCLDY    28  10  47 SW10      30.03F WCI  19
PELLA *        CLEAR     29   8  41 SW6       30.08F WCI  23
PERRY *          N/A     30  18  59 SW9       30.01F WCI  22
$$

IAZ004>006-015-016-023>025-035-036-130000-
   NORTH CENTRAL IOWA

CITY           SKY/WX    TMP DP  RH WIND       PRES   REMARKS
ALGONA *       MOCLDY    34  23  64 SW12      29.95S WCI  25
CLARION *      CLEAR     30  21  69 SW9       29.97F WCI  22
ESTHERVILLE    PTCLDY    33  26  75 SW13      29.92F WCI  24
FORT DODGE *   CLEAR     32  22  66 SW9       29.97F WCI  24
MASON CITY     PTCLDY    30  20  66 SW9       29.96F WCI  22
FOREST CITY *    N/A     30  23  74 SW7       29.94F WCI  23
WEBSTER CITY * CLEAR     32  19  59 SW10      29.96F WCI  24
IOWA FALLS *     N/A     29  19  67 SW7       29.99F HAZE    WCI  22
$$

IAZ007>011-017>019-026>030-037>042-050>054-066-130000-
   NORTHEAST IOWA

CITY           SKY/WX    TMP DP  RH WIND       PRES   REMARKS
CEDAR RAPIDS   CLOUDY    22   5  48 W6        30.05F WCI  14
CHARLES CITY * CLOUDY    27  16  63 S6        29.98F WCI  20
CLINTON *      CLOUDY    24  10  55 W8        30.06F WCI  15
DECORAH *      CLOUDY    21  12  68 VRB5      29.98F WCI  15
DUBUQUE        CLOUDY    21   9  59 W6        30.02F WCI  13
MONTICELLO *   CLOUDY    25   3  39 W7        30.04S WCI  17
OELWEIN *      CLOUDY    25   9  50 SW6       30.01F WCI  18
WATERLOO       CLOUDY    25  10  53 S8        30.01F WCI  16
$$

IAZ064-065-067-068-078-130000-
   EAST CENTRAL IOWA

CITY           SKY/WX    TMP DP  RH WIND       PRES   REMARKS
DAVENPORT      CLOUDY    25   5  42 W7        30.08F WCI  17
IOWA CITY      CLOUDY    29   4  34 W7        30.08F WCI  22
MT. PLEASANT * CLOUDY    29   0  29 W3        30.10S
MUSCATINE *    CLOUDY    28   1  31 W8        30.09F WCI  20
QUAD CITIES    MOCLDY    27   4  37 W7        30.07F WCI  19
$$

IAZ062-063-075>077-085>089-095>099-130000-
   SOUTHEAST IOWA

CITY           SKY/WX    TMP DP  RH WIND       PRES   REMARKS
BURLINGTON     CLOUDY    29   4  34 W5        30.09F WCI  24
FAIRFIELD *    CLOUDY    28  -2  26 W7        30.08F WCI  21
FORT MADISON * CLOUDY    28   3  34 CALM      30.10F
KEOKUK *       CLOUDY    30   5  34 W7        30.10F WCI  23
OSKALOOSA *      N/A     26   5  40 W6        30.08F WCI  20
OTTUMWA        PTCLDY    27   5  39 W6        30.08F WCI  20
WASHINGTON *   CLOUDY    28   3  34 W9        30.09F WCI  20
$$

ABBREVIATIONS USED IN REMARKS
   TC - TEMPERATURES IN CELSIUS
  WCI - WIND CHILL INDEX
   HX - HEAT INDEX
  VSB - VISIBILITY
$$





USA.gov is the U.S. government's official web portal to all federal, state and local government web resources and services.